Flag for U.S.A. Weather past 2 weeks in Cumberland, Maryland, U.S.A.

Now
78 °F

Partly sunny.


Feels Like: 80 °F
Forecast: 68 / 85 °F
Wind: 7 mph from Southeast

Location: Eastern West Virginia Regional Airport

Current Time: Aug 20, 2014 at 7:00:05 PM

Latest Report: Aug 20, 2014 at 5:53 PM


Visibility: 10 mi

Pressure: 29.95 "Hg

Humidity: 71%

Dew point: 68 °F

Location of CumberlandLocation

Historic Weather in Cumberland — Graph

°F

Cumberland temperature yesterday

Maximum temperature yesterday: 82 °F (at 2:53 PM)
Minimum temperature yesterday: 65 °F (at 6:53 AM)
Average temperature yesterday: 74 °F

Past Weeks' High & Low Weather Summary

 TemperatureHumidityPressure
High86 °F (Aug 17, 2:53 PM)93% (Aug 10, 6:53 AM)30.16 "Hg (Aug 10, 6:53 AM)
Low49 °F (Aug 15, 6:53 AM)29% (Aug 15, 3:53 PM)29.77 "Hg (Aug 12, 7:53 PM)
Average71 °F66%29.97 "Hg
* Reported Aug 5 5:53 PM — Aug 20 5:53 PM, Cumberland, Weather by CustomWeather, © 2014

Note: Actual official high and low records may vary slightly from our data, if they occured in-between our weather recording intervals... More about our weather records

Advertising

Cumberland weather history for previous 24 hours

 ConditionsComfort  
Time TempWeatherWind HumidityBarometerVisibility
5:53 PM
Aug 20
78 °FPartly sunny.7 mph71%29.95 "Hg10 mi
4:53 PM78 °FBroken clouds.7 mph71%29.95 "Hg10 mi
3:53 PM78 °FScattered clouds.5 mph74%29.94 "Hg10 mi
2:53 PM75 °FOvercast.3 mph82%29.95 "Hg10 mi
2:01 PM72 °FHeavy rain. Fog.8 mph87%29.96 "Hg0 mi
12:53 PM84 °FPartly sunny.16 mph57%29.92 "Hg10 mi
11:53 AM83 °FBroken clouds.12 mph59%29.95 "Hg10 mi
10:53 AM82 °FBroken clouds.9 mph63%29.97 "Hg10 mi
10:02 AM79 °FPartly sunny.9 mph69%29.98 "Hg10 mi
9:53 AM79 °FScattered clouds.7 mph69%29.97 "Hg10 mi
8:53 AM75 °FSunny.3 mph79%29.95 "Hg8 mi
7:53 AM70 °FFog.No wind87%29.95 "Hg4 mi
6:53 AM68 °FFog.3 mph87%29.94 "Hg3 mi
5:53 AM67 °FFog.No wind90%29.92 "Hg4 mi
4:53 AM68 °FFog.No wind87%29.90 "Hg5 mi
3:53 AM71 °FPassing clouds.No wind81%29.90 "Hg9 mi
2:53 AM72 °FPassing clouds.6 mph78%29.90 "Hg9 mi
1:53 AM71 °FPassing clouds.No wind81%29.92 "Hg9 mi
12:53 AM73 °FOvercast.5 mph79%29.92 "Hg10 mi
11:53 PM
Aug 19
73 °FOvercast.3 mph79%29.92 "Hg8 mi
10:53 PM71 °FOvercast.No wind87%29.91 "Hg8 mi
9:53 PM73 °FPassing clouds.No wind79%29.89 "Hg9 mi
8:53 PM74 °FSunny.No wind79%29.88 "Hg10 mi
7:53 PM78 °FSunny.No wind66%29.87 "Hg10 mi
Weather by CustomWeather, © 2014

See weather overviewHow to use our weather pages